Location: Castrojimeno
(41.3966°N, 3.8473°W)
Time: 07:37:26
(UTC+00:00)

SL-16 R/B - Pass Details

Date: 15 May 2026
Orbit: 841 x 844 km, 71.0° (Epoch: 6 June)

Event Time Altitude Azimuth Distance (km) Brightness Sun altitude
Rises 21:05:35 0° 339° (NNW) 3,412 6.6 -15.8°
Reaches altitude 10° 21:08:04 10° 342° (NNW) 2,473 5.6 -16.1°
Maximum altitude 21:13:42 62° 63° (ENE) 949 2.3 -16.9°
Enters shadow 21:16:35 29° 135° (SE) 1,512 2.9 -17.2°
